Time,TemperatureF,DewpointF,PressureIn,WindDirection,WindDirectionDegrees,WindSpeedMPH,WindSpeedGustMPH,Humidity,HourlyPrecipIn,Conditions,Clouds,dailyrainin,SoftwareType,DateUTC
2013-08-07 00:01:00,68.2,66.1,28.65,SE,135,3.5,3.5,93,0.00,CLR,SKC,0.00,WeatherDisplay:10.37,2013-08-07 04:01:00,
2013-08-07 00:02:00,68.2,66.1,28.64,SE,135,2.3,2.3,93,0.00,CLR,SKC,0.00,WeatherDisplay:10.37,2013-08-07 04:02:00,
2013-08-07 00:04:00,68.2,66.1,28.65,SE,135,2.3,2.3,93,0.00,CLR,SKC,0.00,WeatherDisplay:10.37,2013-08-07 04:04:00,
2013-08-07 00:09:00,68.2,66.4,28.64,SE,135,3.5,3.5,94,0.00,CLR,SKC,0.00,WeatherDisplay:10.37,2013-08-07 04:09:00,
2013-08-07 00:14:00,68.0,65.9,28.64,SE,135,2.3,0.0,93,0.00,CLR,SKC,0.00,WeatherDisplay:10.37,2013-08-07 04:14:00,
2013-08-07 00:19:00,68.0,65.9,28.64,SE,135,0.0,0.0,93,0.00,CLR,SKC,0.00,WeatherDisplay:10.37,2013-08-07 04:19:00,
2013-08-07 00:24:00,67.6,65.9,28.64,SE,135,0.0,0.7,94,0.00,CLR,SKC,0.00,WeatherDisplay:10.37,2013-08-07 04:24:00,
2013-08-07 00:29:00,67.6,65.9,28.64,SE,135,2.3,2.3,94,0.00,CLR,SKC,0.00,WeatherDisplay:10.37,2013-08-07 04:29:00,
2013-08-07 00:34:00,67.6,65.9,28.64,ESE,112,5.8,5.8,94,0.00,CLR,SKC,0.00,WeatherDisplay:10.37,2013-08-07 04:34:00,
2013-08-07 00:39:00,67.6,65.9,28.64,East,90,2.3,2.3,94,0.00,CLR,SKC,0.00,WeatherDisplay:10.37,2013-08-07 04:39:00,
2013-08-07 00:44:00,67.6,65.9,28.64,SE,135,3.5,3.5,94,0.00,CLR,SKC,0.00,WeatherDisplay:10.37,2013-08-07 04:44:00,
2013-08-07 00:49:00,67.5,65.7,28.64,SE,135,3.5,3.5,94,0.00,CLR,SKC,0.00,WeatherDisplay:10.37,2013-08-07 04:49:00,
2013-08-07 00:54:00,67.5,65.7,28.64,SE,135,3.5,3.5,94,0.00,CLR,SKC,0.00,WeatherDisplay:10.37,2013-08-07 04:54:00,
2013-08-07 00:59:00,67.3,65.5,28.64,SE,135,3.5,0.0,94,0.00,CLR,SKC,0.00,WeatherDisplay:10.37,2013-08-07 04:59:00,
2013-08-07 01:04:00,67.1,65.3,28.64,SE,135,1.2,1.2,94,0.00,CLR,SKC,0.00,WeatherDisplay:10.37,2013-08-07 05:04:00,
2013-08-07 01:09:00,66.9,65.1,28.64,SE,135,1.2,0.0,94,0.00,CLR,SKC,0.00,WeatherDisplay:10.37,2013-08-07 05:09:00,
2013-08-07 01:14:00,66.7,65.3,28.64,SE,135,3.5,3.5,95,0.00,CLR,SKC,0.00,WeatherDisplay:10.37,2013-08-07 05:14:00,
2013-08-07 01:19:00,66.9,65.7,28.63,SE,135,3.5,3.5,96,0.00,CLR,SKC,0.00,WeatherDisplay:10.37,2013-08-07 05:19:00,
2013-08-07 01:24:00,66.9,65.4,28.64,SE,135,3.5,3.5,95,0.00,CLR,SKC,0.00,WeatherDisplay:10.37,2013-08-07 05:24:00,
2013-08-07 01:29:00,66.9,65.4,28.63,SE,135,2.3,2.3,95,0.00,CLR,SKC,0.00,WeatherDisplay:10.37,2013-08-07 05:29:00,
2013-08-07 01:34:00,66.9,65.4,28.63,SE,135,2.3,2.3,95,0.00,CLR,SKC,0.00,WeatherDisplay:10.37,2013-08-07 05:34:00,
2013-08-07 01:40:00,66.9,65.4,28.64,SE,135,2.3,2.3,95,0.00,CLR,SKC,0.00,WeatherDisplay:10.37,2013-08-07 05:40:00,
2013-08-07 01:45:00,66.9,65.4,28.64,SE,135,0.0,0.0,95,0.00,CLR,SKC,0.00,WeatherDisplay:10.37,2013-08-07 05:45:00,
2013-08-07 01:50:00,66.7,65.3,28.63,SE,135,0.0,0.0,95,0.00,CLR,SKC,0.00,WeatherDisplay:10.37,2013-08-07 05:50:00,
2013-08-07 01:55:00,66.4,64.9,28.63,SE,135,0.0,0.0,95,0.00,CLR,SKC,0.00,WeatherDisplay:10.37,2013-08-07 05:55:00,
2013-08-07 02:00:00,66.0,64.5,28.63,SE,135,1.2,0.0,95,0.00,CLR,SKC,0.00,WeatherDisplay:10.37,2013-08-07 06:00:00,
2013-08-07 02:05:00,66.0,64.5,28.63,SE,135,0.0,0.0,95,0.00,CLR,SKC,0.00,WeatherDisplay:10.37,2013-08-07 06:05:00,
2013-08-07 02:10:00,66.0,65.1,28.64,SE,135,1.2,0.0,97,0.00,CLR,SKC,0.00,WeatherDisplay:10.37,2013-08-07 06:10:00,
2013-08-07 02:15:00,65.8,65.0,28.63,SE,135,1.2,0.0,97,0.00,CLR,SKC,0.00,WeatherDisplay:10.37,2013-08-07 06:15:00,
2013-08-07 02:20:00,65.8,65.0,28.63,SE,135,2.3,0.0,97,0.00,CLR,SKC,0.00,WeatherDisplay:10.37,2013-08-07 06:20:00,
2013-08-07 02:25:00,65.8,65.0,28.64,SE,135,0.0,0.0,97,0.00,CLR,SKC,0.00,WeatherDisplay:10.37,2013-08-07 06:25:00,
2013-08-07 02:30:00,65.7,64.8,28.64,SE,135,1.2,0.0,97,0.00,CLR,SKC,0.00,WeatherDisplay:10.37,2013-08-07 06:30:00,
2013-08-07 02:35:00,65.7,64.8,28.64,SE,135,0.0,0.0,97,0.00,CLR,SKC,0.00,WeatherDisplay:10.37,2013-08-07 06:35:00,
2013-08-07 02:40:00,65.3,64.4,28.64,SE,135,0.0,0.0,97,0.00,CLR,SKC,0.00,WeatherDisplay:10.37,2013-08-07 06:40:00,
2013-08-07 02:45:00,65.1,64.0,28.64,SE,135,0.0,0.0,96,0.00,CLR,SKC,0.00,WeatherDisplay:10.37,2013-08-07 06:45:00,
2013-08-07 02:50:00,64.8,63.6,28.64,SE,135,0.0,0.0,96,0.00,CLR,SKC,0.00,WeatherDisplay:10.37,2013-08-07 06:50:00,
2013-08-07 02:55:00,64.8,63.9,28.64,SE,135,0.0,0.0,97,0.00,CLR,SKC,0.00,WeatherDisplay:10.37,2013-08-07 06:55:00,
2013-08-07 03:00:00,64.6,63.7,28.64,SE,135,0.0,0.0,97,0.00,CLR,SKC,0.00,WeatherDisplay:10.37,2013-08-07 07:00:00,
2013-08-07 03:05:00,64.6,63.7,28.64,SE,135,0.0,0.0,97,0.00,CLR,SKC,0.00,WeatherDisplay:10.37,2013-08-07 07:05:00,
2013-08-07 03:10:00,64.8,63.9,28.64,SE,135,0.0,0.0,97,0.00,CLR,SKC,0.00,WeatherDisplay:10.37,2013-08-07 07:10:00,
2013-08-07 03:15:00,64.8,63.9,28.64,SE,135,0.0,0.0,97,0.00,CLR,SKC,0.00,WeatherDisplay:10.37,2013-08-07 07:15:00,
2013-08-07 03:20:00,64.9,64.1,28.64,SE,135,0.0,0.0,97,0.00,CLR,SKC,0.00,WeatherDisplay:10.37,2013-08-07 07:20:00,
2013-08-07 03:25:00,64.9,64.1,28.64,SE,135,0.0,0.0,97,0.00,CLR,SKC,0.00,WeatherDisplay:10.37,2013-08-07 07:25:00,
2013-08-07 03:30:00,65.1,64.2,28.64,SE,135,0.0,0.0,97,0.00,CLR,SKC,0.00,WeatherDisplay:10.37,2013-08-07 07:30:00,
2013-08-07 03:35:00,65.3,64.4,28.64,SE,135,0.0,0.0,97,0.00,CLR,SKC,0.00,WeatherDisplay:10.37,2013-08-07 07:35:00,
2013-08-07 03:40:00,65.3,64.4,28.64,SE,135,0.0,0.0,97,0.00,CLR,SKC,0.00,WeatherDisplay:10.37,2013-08-07 07:40:00,
2013-08-07 03:45:00,65.1,64.2,28.64,East,90,0.0,0.0,97,0.00,CLR,SKC,0.00,WeatherDisplay:10.37,2013-08-07 07:45:00,
2013-08-07 03:50:00,65.1,64.2,28.64,East,90,0.0,0.0,97,0.00,CLR,SKC,0.00,WeatherDisplay:10.37,2013-08-07 07:50:00,
2013-08-07 03:55:00,65.1,64.2,28.64,East,90,0.0,0.0,97,0.00,CLR,SKC,0.00,WeatherDisplay:10.37,2013-08-07 07:55:00,
2013-08-07 04:00:00,65.1,64.2,28.64,East,90,0.0,0.0,97,0.00,CLR,SKC,0.00,WeatherDisplay:10.37,2013-08-07 08:00:00,
2013-08-07 04:05:00,65.1,64.2,28.64,East,90,0.0,0.0,97,0.00,CLR,SKC,0.00,WeatherDisplay:10.37,2013-08-07 08:05:00,
2013-08-07 04:10:00,64.8,63.9,28.64,East,90,0.0,0.0,97,0.00,CLR,SKC,0.00,WeatherDisplay:10.37,2013-08-07 08:10:00,
2013-08-07 04:15:00,64.8,63.9,28.64,East,90,0.0,0.0,97,0.00,CLR,SKC,0.00,WeatherDisplay:10.37,2013-08-07 08:15:00,
2013-08-07 04:20:00,64.9,64.1,28.64,East,90,0.0,0.0,97,0.00,CLR,SKC,0.00,WeatherDisplay:10.37,2013-08-07 08:20:00,
2013-08-07 04:25:00,64.9,64.1,28.64,East,90,0.0,0.0,97,0.00,CLR,SKC,0.00,WeatherDisplay:10.37,2013-08-07 08:25:00,
2013-08-07 04:30:00,64.8,63.9,28.64,East,90,0.0,0.0,97,0.00,CLR,SKC,0.00,WeatherDisplay:10.37,2013-08-07 08:30:00,
2013-08-07 04:35:00,64.8,63.9,28.64,East,90,0.0,0.0,97,0.00,CLR,SKC,0.00,WeatherDisplay:10.37,2013-08-07 08:35:00,
2013-08-07 04:40:00,64.8,63.9,28.64,East,90,0.0,0.0,97,0.00,CLR,SKC,0.00,WeatherDisplay:10.37,2013-08-07 08:40:00,
2013-08-07 04:45:00,64.8,63.9,28.63,East,90,0.0,0.0,97,0.00,CLR,SKC,0.00,WeatherDisplay:10.37,2013-08-07 08:45:00,
2013-08-07 04:50:00,64.4,63.5,28.63,East,90,0.0,0.0,97,0.00,CLR,SKC,0.00,WeatherDisplay:10.37,2013-08-07 08:50:00,
2013-08-07 04:55:00,64.2,63.4,28.63,East,90,0.0,0.0,97,0.00,CLR,SKC,0.00,WeatherDisplay:10.37,2013-08-07 08:55:00,
2013-08-07 05:00:00,64.2,63.4,28.63,East,90,0.0,0.0,97,0.00,CLR,SKC,0.00,WeatherDisplay:10.37,2013-08-07 09:00:00,
2013-08-07 05:05:00,64.2,63.4,28.63,East,90,0.0,0.0,97,0.00,CLR,SKC,0.00,WeatherDisplay:10.37,2013-08-07 09:05:00,
2013-08-07 05:10:00,64.0,63.5,28.63,East,90,0.0,0.0,98,0.00,CLR,SKC,0.00,WeatherDisplay:10.37,2013-08-07 09:10:00,
2013-08-07 05:16:00,63.9,63.3,28.63,East,90,0.0,0.0,98,0.00,CLR,SKC,0.00,WeatherDisplay:10.37,2013-08-07 09:16:00,
2013-08-07 05:21:00,63.5,62.9,28.63,East,90,0.0,0.0,98,0.00,CLR,SKC,0.00,WeatherDisplay:10.37,2013-08-07 09:21:00,
2013-08-07 05:26:00,63.5,62.9,28.63,East,90,0.0,0.0,98,0.00,CLR,SKC,0.00,WeatherDisplay:10.37,2013-08-07 09:26:00,
2013-08-07 05:31:00,63.3,62.7,28.63,East,90,0.0,0.0,98,0.00,CLR,SKC,0.00,WeatherDisplay:10.37,2013-08-07 09:31:00,
2013-08-07 05:36:00,63.3,62.7,28.63,East,90,0.0,0.0,98,0.00,CLR,SKC,0.00,WeatherDisplay:10.37,2013-08-07 09:36:00,
2013-08-07 05:41:00,63.3,62.7,28.63,East,90,0.0,0.0,98,0.00,CLR,SKC,0.00,WeatherDisplay:10.37,2013-08-07 09:41:00,
2013-08-07 05:46:00,63.3,63.0,28.64,East,90,0.0,0.0,99,0.00,CLR,SKC,0.00,WeatherDisplay:10.37,2013-08-07 09:46:00,
2013-08-07 05:51:00,63.1,62.9,28.63,East,90,0.0,0.0,99,0.00,CLR,SKC,0.00,WeatherDisplay:10.37,2013-08-07 09:51:00,
2013-08-07 05:56:00,63.1,62.9,28.63,East,90,0.0,0.0,99,0.00,CLR,SKC,0.00,WeatherDisplay:10.37,2013-08-07 09:56:00,
2013-08-07 06:01:00,63.0,62.7,28.63,East,90,0.0,0.0,99,0.00,CLR,SKC,0.00,WeatherDisplay:10.37,2013-08-07 10:01:00,
2013-08-07 06:06:00,63.0,62.7,28.63,East,90,0.0,0.0,99,0.00,CLR,SKC,0.00,WeatherDisplay:10.37,2013-08-07 10:06:00,
2013-08-07 06:11:00,63.3,63.0,28.64,East,90,0.0,0.0,99,0.00,CLR,SKC,0.00,WeatherDisplay:10.37,2013-08-07 10:11:00,
2013-08-07 06:16:00,63.3,63.0,28.64,East,90,0.0,0.0,99,0.00,CLR,SKC,0.00,WeatherDisplay:10.37,2013-08-07 10:16:00,
2013-08-07 06:21:00,63.3,63.0,28.63,East,90,0.0,0.0,99,0.00,CLR,SKC,0.00,WeatherDisplay:10.37,2013-08-07 10:21:00,
2013-08-07 06:26:00,63.1,62.9,28.63,East,90,0.0,0.0,99,0.00,CLR,SKC,0.00,WeatherDisplay:10.37,2013-08-07 10:26:00,
2013-08-07 06:31:00,63.1,62.9,28.63,East,90,0.0,0.0,99,0.00,CLR,SKC,0.00,WeatherDisplay:10.37,2013-08-07 10:31:00,
2013-08-07 06:36:00,63.1,62.9,28.63,East,90,0.0,0.0,99,0.00,CLR,SKC,0.00,WeatherDisplay:10.37,2013-08-07 10:36:00,
2013-08-07 06:41:00,63.5,63.2,28.63,SE,135,0.0,0.0,99,0.00,CLR,SKC,0.00,WeatherDisplay:10.37,2013-08-07 10:41:00,
2013-08-07 06:46:00,63.9,63.6,28.63,SE,135,3.5,3.5,99,0.00,CLR,SKC,0.00,WeatherDisplay:10.37,2013-08-07 10:46:00,
2013-08-07 06:51:00,64.0,63.8,28.63,SE,135,3.5,3.5,99,0.00,CLR,SKC,0.00,WeatherDisplay:10.37,2013-08-07 10:51:00,
2013-08-07 06:56:00,64.2,63.9,28.63,SE,135,2.3,2.3,99,0.00,CLR,SKC,0.00,WeatherDisplay:10.37,2013-08-07 10:56:00,
2013-08-07 07:01:00,64.2,63.9,28.63,SE,135,0.0,0.0,99,0.00,CLR,SKC,0.00,WeatherDisplay:10.37,2013-08-07 11:01:00,
2013-08-07 07:06:00,64.2,63.9,28.62,SE,135,0.0,0.0,99,0.00,CLR,SKC,0.00,WeatherDisplay:10.37,2013-08-07 11:06:00,
2013-08-07 07:11:00,64.8,64.5,28.62,SE,135,0.0,0.0,99,0.00,CLR,SKC,0.00,WeatherDisplay:10.37,2013-08-07 11:11:00,
2013-08-07 07:16:00,65.1,64.8,28.63,SE,135,0.0,0.0,99,0.00,CLR,SKC,0.00,WeatherDisplay:10.37,2013-08-07 11:16:00,
2013-08-07 07:21:00,65.5,65.2,28.63,SE,135,0.0,0.0,99,0.00,CLR,SKC,0.00,WeatherDisplay:10.37,2013-08-07 11:21:00,
2013-08-07 07:26:00,65.8,65.6,28.63,SE,135,2.3,2.3,99,0.00,CLR,SKC,0.00,WeatherDisplay:10.37,2013-08-07 11:26:00,
2013-08-07 07:31:00,66.2,65.3,28.63,SE,135,1.2,0.0,97,0.00,CLR,SKC,0.00,WeatherDisplay:10.37,2013-08-07 11:31:00,
2013-08-07 07:36:00,66.6,65.4,28.63,SE,135,2.3,2.3,96,0.00,CLR,SKC,0.00,WeatherDisplay:10.37,2013-08-07 11:36:00,
2013-08-07 07:41:00,66.9,64.8,28.64,SE,135,1.2,0.0,93,0.00,CLR,SKC,0.00,WeatherDisplay:10.37,2013-08-07 11:41:00,
2013-08-07 07:46:00,67.3,64.6,28.63,SE,135,1.2,0.0,91,0.00,CLR,SKC,0.00,WeatherDisplay:10.37,2013-08-07 11:46:00,
2013-08-07 07:51:00,67.6,64.6,28.64,SE,135,0.0,0.0,90,0.00,CLR,SKC,0.00,WeatherDisplay:10.37,2013-08-07 11:51:00,
2013-08-07 07:56:00,67.8,64.1,28.63,SE,135,2.3,2.3,88,0.00,CLR,SKC,0.00,WeatherDisplay:10.37,2013-08-07 11:56:00,
2013-08-07 08:01:00,68.0,63.7,28.63,SE,135,2.3,2.3,86,0.00,CLR,SKC,0.00,WeatherDisplay:10.37,2013-08-07 12:01:00,
2013-08-07 08:06:00,68.0,63.7,28.63,SE,135,2.3,2.3,86,0.00,CLR,SKC,0.00,WeatherDisplay:10.37,2013-08-07 12:06:00,
2013-08-07 08:11:00,68.4,62.6,28.62,ESE,112,3.5,3.5,82,0.00,CLR,SKC,0.00,WeatherDisplay:10.37,2013-08-07 12:11:00,
2013-08-07 08:16:00,68.5,62.5,28.61,SE,135,3.5,3.5,81,0.00,CLR,SKC,0.00,WeatherDisplay:10.37,2013-08-07 12:16:00,
2013-08-07 08:21:00,68.5,62.5,28.62,ESE,112,5.8,5.8,81,0.00,CLR,SKC,0.00,WeatherDisplay:10.37,2013-08-07 12:21:00,
2013-08-07 08:26:00,68.7,62.3,28.62,SE,135,5.8,5.8,80,0.00,CLR,SKC,0.00,WeatherDisplay:10.37,2013-08-07 12:26:00,
2013-08-07 08:31:00,69.1,62.3,28.63,SE,135,2.3,2.3,79,0.00,CLR,SKC,0.00,WeatherDisplay:10.37,2013-08-07 12:31:00,
2013-08-07 08:36:00,69.3,62.1,28.63,ESE,112,2.3,2.3,78,0.00,CLR,SKC,0.00,WeatherDisplay:10.37,2013-08-07 12:36:00,
2013-08-07 08:41:00,69.4,61.5,28.63,SE,135,2.3,2.3,76,0.00,CLR,SKC,0.00,WeatherDisplay:10.37,2013-08-07 12:41:00,
2013-08-07 08:46:00,69.6,61.3,28.63,SE,135,3.5,3.5,75,0.00,CLR,SKC,0.00,WeatherDisplay:10.37,2013-08-07 12:46:00,
2013-08-07 08:51:00,70.0,61.3,28.63,SE,135,2.3,2.3,74,0.00,CLR,SKC,0.00,WeatherDisplay:10.37,2013-08-07 12:51:00,
2013-08-07 08:56:00,70.3,61.3,28.64,SE,135,2.3,2.3,73,0.00,CLR,SKC,0.00,WeatherDisplay:10.37,2013-08-07 12:56:00,
2013-08-07 09:01:00,70.7,61.2,28.63,SE,135,2.3,2.3,72,0.00,CLR,SKC,0.00,WeatherDisplay:10.37,2013-08-07 13:01:00,
2013-08-07 09:06:00,70.7,61.2,28.63,SE,135,2.3,2.3,72,0.00,CLR,SKC,0.00,WeatherDisplay:10.37,2013-08-07 13:06:00,
2013-08-07 09:11:00,72.3,60.3,28.63,SE,135,3.5,0.0,66,0.00,CLR,SKC,0.00,WeatherDisplay:10.37,2013-08-07 13:11:00,
2013-08-07 09:16:00,73.0,60.1,28.63,SE,135,3.5,0.0,64,0.00,CLR,SKC,0.00,WeatherDisplay:10.37,2013-08-07 13:16:00,
2013-08-07 09:21:00,73.9,59.6,28.63,South,180,3.5,3.5,61,0.00,CLR,SKC,0.00,WeatherDisplay:10.37,2013-08-07 13:21:00,
2013-08-07 09:26:00,74.1,58.4,28.63,South,180,5.8,5.8,58,0.00,CLR,SKC,0.00,WeatherDisplay:10.37,2013-08-07 13:26:00,
2013-08-07 09:31:00,74.3,58.6,28.63,SSE,158,3.5,3.5,58,0.00,CLR,SKC,0.00,WeatherDisplay:10.37,2013-08-07 13:31:00,
2013-08-07 09:36:00,74.3,58.6,28.63,ESE,112,4.6,4.6,58,0.00,CLR,SKC,0.00,WeatherDisplay:10.37,2013-08-07 13:36:00,
2013-08-07 09:41:00,74.1,58.9,28.64,SE,135,3.5,0.0,59,0.00,CLR,SKC,0.00,WeatherDisplay:10.37,2013-08-07 13:41:00,
2013-08-07 09:46:00,73.9,59.2,28.64,East,90,3.5,3.5,60,0.00,CLR,SKC,0.00,WeatherDisplay:10.37,2013-08-07 13:46:00,
2013-08-07 09:51:00,73.9,59.2,28.64,SE,135,3.5,3.5,60,0.00,CLR,SKC,0.00,WeatherDisplay:10.37,2013-08-07 13:51:00,
2013-08-07 09:56:00,74.3,60.0,28.64,SE,135,1.2,0.0,61,0.00,CLR,SKC,0.00,WeatherDisplay:10.37,2013-08-07 13:56:00,
2013-08-07 10:01:00,74.5,60.1,28.63,South,180,4.6,4.6,61,0.00,CLR,SKC,0.00,WeatherDisplay:10.37,2013-08-07 14:01:00,
2013-08-07 10:06:00,75.7,60.9,28.64,SE,135,4.6,4.6,60,0.00,CLR,SKC,0.00,WeatherDisplay:10.37,2013-08-07 14:06:00,
2013-08-07 10:11:00,76.8,59.9,28.64,East,90,5.8,5.8,56,0.00,CLR,SKC,0.00,WeatherDisplay:10.37,2013-08-07 14:11:00,
2013-08-07 10:16:00,77.5,60.1,28.63,SE,135,3.5,3.5,55,0.00,CLR,SKC,0.00,WeatherDisplay:10.37,2013-08-07 14:16:00,
2013-08-07 10:21:00,77.7,60.3,28.64,South,180,3.5,3.5,55,0.00,CLR,SKC,0.00,WeatherDisplay:10.37,2013-08-07 14:21:00,
2013-08-07 10:26:00,77.4,60.4,28.64,SE,135,3.5,3.5,56,0.00,CLR,SKC,0.00,WeatherDisplay:10.37,2013-08-07 14:26:00,
2013-08-07 10:31:00,77.4,61.4,28.64,SE,135,0.0,0.0,58,0.00,CLR,SKC,0.00,WeatherDisplay:10.37,2013-08-07 14:31:00,
2013-08-07 10:36:00,77.4,61.9,28.64,SE,135,3.5,3.5,59,0.00,CLR,SKC,0.00,WeatherDisplay:10.37,2013-08-07 14:36:00,
2013-08-07 10:41:00,77.4,61.9,28.64,SE,135,3.5,3.5,59,0.00,CLR,SKC,0.00,WeatherDisplay:10.37,2013-08-07 14:41:00,
2013-08-07 10:46:00,77.7,62.7,28.64,SE,135,3.5,3.5,60,0.00,CLR,SKC,0.00,WeatherDisplay:10.37,2013-08-07 14:46:00,
2013-08-07 10:51:00,78.6,63.6,28.64,South,180,3.5,3.5,60,0.00,CLR,SKC,0.00,WeatherDisplay:10.37,2013-08-07 14:51:00,
2013-08-07 10:56:00,78.8,63.7,28.64,SE,135,3.5,3.5,60,0.00,CLR,SKC,0.00,WeatherDisplay:10.37,2013-08-07 14:56:00,
2013-08-07 11:01:00,78.8,63.3,28.64,SE,135,3.5,3.5,59,0.00,CLR,SKC,0.00,WeatherDisplay:10.37,2013-08-07 15:01:00,
2013-08-07 11:06:00,80.6,63.5,28.64,East,90,5.8,5.8,56,0.00,CLR,SKC,0.00,WeatherDisplay:10.37,2013-08-07 15:06:00,
2013-08-07 11:11:00,80.8,64.6,28.64,SE,135,5.8,5.8,58,0.00,CLR,SKC,0.00,WeatherDisplay:10.37,2013-08-07 15:11:00,
2013-08-07 11:17:00,80.4,64.8,28.64,SE,135,5.8,5.8,59,0.00,CLR,SKC,0.00,WeatherDisplay:10.37,2013-08-07 15:17:00,
2013-08-07 11:22:00,79.9,64.8,28.64,SE,135,5.8,5.8,60,0.00,CLR,SKC,0.00,WeatherDisplay:10.37,2013-08-07 15:22:00,
2013-08-07 11:27:00,79.7,65.5,28.64,South,180,8.1,8.1,62,0.00,CLR,SKC,0.00,WeatherDisplay:10.37,2013-08-07 15:27:00,
2013-08-07 11:32:00,79.9,66.6,28.64,South,180,4.6,4.6,64,0.00,CLR,SKC,0.00,WeatherDisplay:10.37,2013-08-07 15:32:00,
2013-08-07 11:37:00,79.9,67.5,28.64,SE,135,1.2,0.0,66,0.00,CLR,SKC,0.00,WeatherDisplay:10.37,2013-08-07 15:37:00,
2013-08-07 11:42:00,80.2,67.8,28.64,SE,135,3.5,3.5,66,0.00,CLR,SKC,0.00,WeatherDisplay:10.37,2013-08-07 15:42:00,
2013-08-07 11:47:00,80.1,67.7,28.64,South,180,5.8,5.8,66,0.00,CLR,SKC,0.00,WeatherDisplay:10.37,2013-08-07 15:47:00,
2013-08-07 11:52:00,80.2,68.7,28.64,SE,135,3.5,0.0,68,0.00,CLR,SKC,0.00,WeatherDisplay:10.37,2013-08-07 15:52:00,
2013-08-07 11:57:00,80.6,69.1,28.64,SE,135,3.5,3.5,68,0.00,CLR,SKC,0.00,WeatherDisplay:10.37,2013-08-07 15:57:00,
2013-08-07 12:02:00,81.1,69.1,28.64,SE,135,3.5,3.5,67,0.00,CLR,SKC,0.00,WeatherDisplay:10.37,2013-08-07 16:02:00,
2013-08-07 12:07:00,81.1,69.1,28.64,SE,135,3.5,3.5,67,0.00,CLR,SKC,0.00,WeatherDisplay:10.37,2013-08-07 16:07:00,
2013-08-07 12:12:00,82.0,70.9,28.64,South,180,2.3,0.0,69,0.00,CLR,SKC,0.00,WeatherDisplay:10.37,2013-08-07 16:12:00,
2013-08-07 12:17:00,84.4,72.7,28.63,NE,45,1.6,0.0,68,0.00,CLR,SKC,0.00,WeatherDisplay:10.37,2013-08-07 16:17:00,
2013-08-07 12:22:00,86.2,72.6,28.63,SE,135,4.6,4.6,64,0.00,CLR,SKC,0.00,WeatherDisplay:10.37,2013-08-07 16:22:00,
2013-08-07 12:27:00,87.1,72.0,28.63,SE,135,3.5,3.5,61,0.00,CLR,SKC,0.00,WeatherDisplay:10.37,2013-08-07 16:27:00,
2013-08-07 12:32:00,86.4,70.8,28.63,South,180,5.8,5.8,60,0.00,CLR,SKC,0.00,WeatherDisplay:10.37,2013-08-07 16:32:00,
2013-08-07 12:37:00,86.2,72.6,28.63,East,90,3.5,0.0,64,0.00,CLR,SKC,0.00,WeatherDisplay:10.37,2013-08-07 16:37:00,
2013-08-07 12:42:00,86.0,71.9,28.63,SE,135,5.8,5.8,63,0.00,CLR,SKC,0.00,WeatherDisplay:10.37,2013-08-07 16:42:00,
2013-08-07 12:47:00,85.5,73.2,28.62,SE,135,3.5,3.5,67,0.00,CLR,SKC,0.00,WeatherDisplay:10.37,2013-08-07 16:47:00,
2013-08-07 12:52:00,85.6,73.9,28.63,SE,135,9.2,9.2,68,0.00,CLR,SKC,0.00,WeatherDisplay:10.37,2013-08-07 16:52:00,
2013-08-07 12:57:00,86.4,74.1,28.62,North,8,3.5,3.5,67,0.00,CLR,SKC,0.00,WeatherDisplay:10.37,2013-08-07 16:57:00,
2013-08-07 13:02:00,86.7,74.4,28.62,SE,135,1.2,1.2,67,0.00,CLR,SKC,0.00,WeatherDisplay:10.37,2013-08-07 17:02:00,
2013-08-07 13:07:00,86.7,74.4,28.62,SE,135,1.2,1.2,67,0.00,CLR,SKC,0.00,WeatherDisplay:10.37,2013-08-07 17:07:00,
2013-08-07 13:12:00,87.8,75.5,28.62,North,0,3.5,3.5,67,0.00,CLR,SKC,0.00,WeatherDisplay:10.37,2013-08-07 17:12:00,
2013-08-07 13:17:00,88.5,75.7,28.62,NW,315,4.6,4.6,66,0.00,CLR,SKC,0.00,WeatherDisplay:10.37,2013-08-07 17:17:00,
2013-08-07 13:22:00,88.5,75.7,28.62,SSE,158,3.5,3.5,66,0.00,CLR,SKC,0.00,WeatherDisplay:10.37,2013-08-07 17:22:00,
2013-08-07 13:27:00,87.8,75.0,28.62,SE,135,5.8,5.8,66,0.00,CLR,SKC,0.00,WeatherDisplay:10.37,2013-08-07 17:27:00,
2013-08-07 13:32:00,87.6,75.7,28.61,SE,135,4.6,0.0,68,0.00,CLR,SKC,0.00,WeatherDisplay:10.37,2013-08-07 17:32:00,
2013-08-07 13:37:00,87.3,75.8,28.61,SE,135,8.1,8.1,69,0.00,CLR,SKC,0.00,WeatherDisplay:10.37,2013-08-07 17:37:00,
2013-08-07 13:42:00,86.9,76.8,28.61,SE,135,3.5,3.5,72,0.00,CLR,SKC,0.00,WeatherDisplay:10.37,2013-08-07 17:42:00,
2013-08-07 13:47:00,87.3,75.8,28.61,ENE,68,8.1,8.1,69,0.00,CLR,SKC,0.00,WeatherDisplay:10.37,2013-08-07 17:47:00,
2013-08-07 13:52:00,87.8,77.2,28.61,North,8,5.8,5.8,71,0.00,CLR,SKC,0.00,WeatherDisplay:10.37,2013-08-07 17:52:00,
2013-08-07 13:57:00,88.5,77.9,28.61,South,180,5.8,5.8,71,0.00,CLR,SKC,0.00,WeatherDisplay:10.37,2013-08-07 17:57:00,
2013-08-07 14:02:00,89.2,78.6,28.61,South,180,1.2,0.0,71,0.00,CLR,SKC,0.00,WeatherDisplay:10.37,2013-08-07 18:02:00,
2013-08-07 14:07:00,89.2,78.6,28.61,South,180,1.2,0.0,71,0.00,CLR,SKC,0.00,WeatherDisplay:10.37,2013-08-07 18:07:00,
2013-08-07 14:12:00,88.0,77.4,28.61,SE,135,6.9,6.9,71,0.00,CLR,SKC,0.00,WeatherDisplay:10.37,2013-08-07 18:12:00,
2013-08-07 14:17:00,86.9,77.6,28.61,SSE,158,5.8,5.8,74,0.00,CLR,SKC,0.00,WeatherDisplay:10.37,2013-08-07 18:17:00,
2013-08-07 14:22:00,86.0,77.5,28.61,South,180,3.5,0.0,76,0.00,CLR,SKC,0.00,WeatherDisplay:10.37,2013-08-07 18:22:00,
2013-08-07 14:27:00,86.4,77.9,28.61,South,180,4.5,4.5,76,0.00,CLR,SKC,0.00,WeatherDisplay:10.37,2013-08-07 18:27:00,
2013-08-07 14:32:00,87.3,78.8,28.61,South,180,1.2,0.0,76,0.00,CLR,SKC,0.00,WeatherDisplay:10.37,2013-08-07 18:32:00,
2013-08-07 14:37:00,89.1,79.7,28.61,East,90,2.3,2.3,74,0.00,CLR,SKC,0.00,WeatherDisplay:10.37,2013-08-07 18:37:00,
2013-08-07 14:42:00,88.9,77.8,28.61,South,180,6.9,6.9,70,0.00,CLR,SKC,0.00,WeatherDisplay:10.37,2013-08-07 18:42:00,
2013-08-07 14:47:00,88.9,79.1,28.60,South,180,5.8,5.8,73,0.00,CLR,SKC,0.00,WeatherDisplay:10.37,2013-08-07 18:47:00,
2013-08-07 14:52:00,88.7,79.3,28.60,SSE,158,4.6,4.6,74,0.00,CLR,SKC,0.00,WeatherDisplay:10.37,2013-08-07 18:52:00,
2013-08-07 14:57:00,88.3,79.0,28.60,SE,135,1.2,1.2,74,0.00,CLR,SKC,0.00,WeatherDisplay:10.37,2013-08-07 18:57:00,
2013-08-07 15:02:00,87.8,78.5,28.60,SE,135,5.8,5.8,74,0.00,CLR,SKC,0.00,WeatherDisplay:10.37,2013-08-07 19:02:00,
2013-08-07 15:07:00,87.8,78.5,28.60,SE,135,5.8,5.8,74,0.00,CLR,SKC,0.00,WeatherDisplay:10.37,2013-08-07 19:07:00,
2013-08-07 15:12:00,87.4,78.9,28.60,South,180,3.5,3.5,76,0.00,CLR,SKC,0.00,WeatherDisplay:10.37,2013-08-07 19:12:00,
2013-08-07 15:17:00,87.3,78.8,28.60,South,180,8.1,8.1,76,0.00,CLR,SKC,0.00,WeatherDisplay:10.37,2013-08-07 19:17:00,
2013-08-07 15:22:00,86.9,78.4,28.59,SSE,158,8.1,8.1,76,0.00,CLR,SKC,0.00,WeatherDisplay:10.37,2013-08-07 19:22:00,
2013-08-07 15:27:00,87.8,79.3,28.59,East,90,5.4,5.4,76,0.00,CLR,SKC,0.00,WeatherDisplay:10.37,2013-08-07 19:27:00,
2013-08-07 15:32:00,87.8,78.5,28.58,South,180,8.1,8.1,74,0.00,CLR,SKC,0.00,WeatherDisplay:10.37,2013-08-07 19:32:00,
2013-08-07 15:37:00,88.7,79.3,28.58,South,180,3.5,3.8,74,0.00,CLR,SKC,0.00,WeatherDisplay:10.37,2013-08-07 19:37:00,
2013-08-07 15:42:00,88.5,79.2,28.59,South,180,5.8,5.8,74,0.00,CLR,SKC,0.00,WeatherDisplay:10.37,2013-08-07 19:42:00,
2013-08-07 15:47:00,88.7,79.8,28.59,SE,135,3.5,3.5,75,0.00,CLR,SKC,0.00,WeatherDisplay:10.37,2013-08-07 19:47:00,
2013-08-07 15:52:00,88.3,79.8,28.58,South,180,2.3,0.0,76,0.00,CLR,SKC,0.00,WeatherDisplay:10.37,2013-08-07 19:52:00,
2013-08-07 15:57:00,88.0,79.1,28.58,SE,135,3.5,3.5,75,0.00,CLR,SKC,0.00,WeatherDisplay:10.37,2013-08-07 19:57:00,
2013-08-07 16:02:00,87.8,79.7,28.58,South,180,2.3,2.3,77,0.00,CLR,SKC,0.00,WeatherDisplay:10.37,2013-08-07 20:02:00,
2013-08-07 16:07:00,87.8,79.7,28.58,South,180,2.3,2.3,77,0.00,CLR,SKC,0.00,WeatherDisplay:10.37,2013-08-07 20:07:00,
2013-08-07 16:12:00,86.5,78.9,28.58,SE,135,6.9,6.9,78,0.00,CLR,SKC,0.00,WeatherDisplay:10.37,2013-08-07 20:12:00,
2013-08-07 16:17:00,86.2,78.9,28.58,SSE,158,3.5,3.5,79,0.00,CLR,SKC,0.00,WeatherDisplay:10.37,2013-08-07 20:17:00,
2013-08-07 16:22:00,85.8,78.5,28.58,SE,135,4.6,4.6,79,0.00,CLR,SKC,0.00,WeatherDisplay:10.37,2013-08-07 20:22:00,
2013-08-07 16:27:00,85.6,78.8,28.58,South,180,3.5,3.5,80,0.00,CLR,SKC,0.00,WeatherDisplay:10.37,2013-08-07 20:27:00,
2013-08-07 16:32:00,85.3,78.4,28.58,South,180,3.5,3.5,80,0.00,CLR,SKC,0.00,WeatherDisplay:10.37,2013-08-07 20:32:00,
2013-08-07 16:37:00,85.1,78.2,28.58,SE,135,1.2,0.0,80,0.00,CLR,SKC,0.00,WeatherDisplay:10.37,2013-08-07 20:37:00,
2013-08-07 16:42:00,84.9,78.1,28.58,SE,135,3.5,0.0,80,0.00,CLR,SKC,0.00,WeatherDisplay:10.37,2013-08-07 20:42:00,
2013-08-07 16:47:00,84.7,77.9,28.58,South,180,2.3,0.0,80,0.00,CLR,SKC,0.00,WeatherDisplay:10.37,2013-08-07 20:47:00,
2013-08-07 16:52:00,84.4,77.9,28.58,South,180,1.2,0.0,81,0.00,CLR,SKC,0.00,WeatherDisplay:10.37,2013-08-07 20:52:00,
2013-08-07 16:57:00,83.8,77.8,28.58,SE,135,0.0,0.0,82,0.00,CLR,SKC,0.00,WeatherDisplay:10.37,2013-08-07 20:57:00,
2013-08-07 17:02:00,83.7,77.6,28.58,SE,135,0.0,0.0,82,0.00,CLR,SKC,0.00,WeatherDisplay:10.37,2013-08-07 21:02:00,
2013-08-07 17:07:00,83.7,77.6,28.58,SE,135,0.0,0.0,82,0.00,CLR,SKC,0.00,WeatherDisplay:10.37,2013-08-07 21:07:00,
2013-08-07 17:12:00,82.0,77.1,28.59,SE,135,0.0,0.0,85,0.00,CLR,SKC,0.00,WeatherDisplay:10.37,2013-08-07 21:12:00,
2013-08-07 17:17:00,81.7,76.7,28.58,South,180,0.0,0.0,85,0.00,CLR,SKC,0.00,WeatherDisplay:10.37,2013-08-07 21:17:00,
2013-08-07 17:22:00,81.5,76.6,28.58,South,180,0.0,0.0,85,0.00,CLR,SKC,0.00,WeatherDisplay:10.37,2013-08-07 21:22:00,
2013-08-07 17:27:00,81.3,76.4,28.59,South,180,0.0,0.0,85,0.00,CLR,SKC,0.00,WeatherDisplay:10.37,2013-08-07 21:27:00,
2013-08-07 17:32:00,81.0,76.0,28.59,South,180,0.0,0.0,85,0.00,CLR,SKC,0.00,WeatherDisplay:10.37,2013-08-07 21:32:00,
2013-08-07 17:37:00,80.8,76.2,28.60,South,180,0.0,0.0,86,0.00,CLR,SKC,0.00,WeatherDisplay:10.37,2013-08-07 21:37:00,
2013-08-07 17:42:00,80.6,76.4,28.59,North,0,0.0,0.0,87,0.00,CLR,SKC,0.00,WeatherDisplay:10.37,2013-08-07 21:42:00,
2013-08-07 17:47:00,80.4,76.9,28.59,NW,315,0.0,0.0,89,0.00,CLR,SKC,0.00,WeatherDisplay:10.37,2013-08-07 21:47:00,
2013-08-07 17:52:00,79.9,77.0,28.59,NW,315,0.0,0.0,91,0.00,CLR,SKC,0.00,WeatherDisplay:10.37,2013-08-07 21:52:00,
2013-08-07 17:57:00,78.8,76.9,28.61,NW,315,12.7,12.7,94,0.00,CLR,SKC,0.00,WeatherDisplay:10.37,2013-08-07 21:57:00,
2013-08-07 18:02:00,74.8,72.4,28.61,North,0,23.0,23.0,92,0.02,RA,SKC,0.02,WeatherDisplay:10.37,2013-08-07 22:02:00,
2013-08-07 18:07:00,72.7,70.9,28.63,North,0,18.4,18.4,94,0.02,RA,SKC,0.02,WeatherDisplay:10.37,2013-08-07 22:07:00,
2013-08-07 18:12:00,71.1,70.2,28.62,WNW,292,16.1,16.1,97,0.07,RA,SKC,0.07,WeatherDisplay:10.37,2013-08-07 22:12:00,
2013-08-07 18:17:00,69.3,68.7,28.61,NW,315,15.0,15.0,98,0.18,RA,SKC,0.18,WeatherDisplay:10.37,2013-08-07 22:17:00,
2013-08-07 18:22:00,68.4,67.8,28.60,East,90,12.7,12.7,98,0.26,RA,SKC,0.26,WeatherDisplay:10.37,2013-08-07 22:22:00,
2013-08-07 18:27:00,68.2,67.6,28.61,North,0,9.2,9.2,98,0.26,RA,SKC,0.26,WeatherDisplay:10.37,2013-08-07 22:27:00,
2013-08-07 18:32:00,68.2,67.6,28.61,NE,45,8.1,8.1,98,0.26,,SKC,0.26,WeatherDisplay:10.37,2013-08-07 22:32:00,
2013-08-07 18:38:00,68.0,67.4,28.61,NE,45,5.8,5.8,98,0.26,CLR,SKC,0.26,WeatherDisplay:10.37,2013-08-07 22:38:00,
2013-08-07 18:43:00,67.8,67.2,28.62,SE,135,6.9,6.9,98,0.26,CLR,SKC,0.26,WeatherDisplay:10.37,2013-08-07 22:43:00,
2013-08-07 18:48:00,68.0,67.4,28.65,South,180,0.0,0.0,98,0.26,CLR,SKC,0.26,WeatherDisplay:10.37,2013-08-07 22:48:00,
2013-08-07 18:53:00,68.2,67.6,28.67,South,180,0.0,1.6,98,0.26,CLR,SKC,0.26,WeatherDisplay:10.37,2013-08-07 22:53:00,
2013-08-07 18:58:00,68.2,67.6,28.66,NE,45,3.5,0.0,98,0.27,RA,SKC,0.27,WeatherDisplay:10.37,2013-08-07 22:58:00,
2013-08-07 19:03:00,68.2,67.6,28.65,SE,135,2.3,2.3,98,0.25,RA,SKC,0.27,WeatherDisplay:10.37,2013-08-07 23:03:00,
2013-08-07 19:08:00,68.0,67.4,28.64,SE,135,2.3,0.0,98,0.25,CLR,SKC,0.27,WeatherDisplay:10.37,2013-08-07 23:08:00,
2013-08-07 19:13:00,68.2,67.6,28.64,SE,135,3.5,0.0,98,0.20,CLR,SKC,0.27,WeatherDisplay:10.37,2013-08-07 23:13:00,
2013-08-07 19:18:00,68.0,67.4,28.63,SE,135,4.6,4.6,98,0.11,RA,SKC,0.28,WeatherDisplay:10.37,2013-08-07 23:18:00,
2013-08-07 19:23:00,68.2,67.6,28.63,SE,135,3.5,0.0,98,0.02,RA,SKC,0.28,WeatherDisplay:10.37,2013-08-07 23:23:00,
2013-08-07 19:28:00,68.2,67.6,28.63,ESE,112,4.6,4.6,98,0.04,RA,SKC,0.30,WeatherDisplay:10.37,2013-08-07 23:28:00,
2013-08-07 19:33:00,68.2,67.6,28.63,East,90,4.6,4.6,98,0.05,RA,SKC,0.31,WeatherDisplay:10.37,2013-08-07 23:33:00,
2013-08-07 19:38:00,68.2,67.6,28.63,East,90,3.5,0.0,98,0.05,RA,SKC,0.31,WeatherDisplay:10.37,2013-08-07 23:38:00,
2013-08-07 19:43:00,68.4,67.8,28.63,East,90,3.5,3.5,98,0.06,RA,SKC,0.32,WeatherDisplay:10.37,2013-08-07 23:43:00,
2013-08-07 19:48:00,68.2,67.6,28.63,South,180,3.5,3.5,98,0.07,RA,SKC,0.33,WeatherDisplay:10.37,2013-08-07 23:48:00,
2013-08-07 19:53:00,68.2,67.6,28.62,South,180,2.3,2.3,98,0.07,RA,SKC,0.33,WeatherDisplay:10.37,2013-08-07 23:53:00,
2013-08-07 19:58:00,68.2,67.6,28.63,ESE,112,4.6,4.6,98,0.06,,SKC,0.33,WeatherDisplay:10.37,2013-08-07 23:58:00,
2013-08-07 20:03:00,68.0,67.4,28.62,East,90,1.2,1.2,98,0.06,CLR,SKC,0.33,WeatherDisplay:10.37,2013-08-08 00:03:00,
2013-08-07 20:08:00,67.5,66.9,28.62,ESE,112,4.6,4.6,98,0.06,CLR,SKC,0.33,WeatherDisplay:10.37,2013-08-08 00:08:00,
2013-08-07 20:13:00,67.1,66.5,28.63,SE,135,4.6,4.6,98,0.06,CLR,SKC,0.33,WeatherDisplay:10.37,2013-08-08 00:13:00,
2013-08-07 20:18:00,67.1,66.5,28.62,SE,135,3.5,3.5,98,0.05,CLR,SKC,0.33,WeatherDisplay:10.37,2013-08-08 00:18:00,
2013-08-07 20:23:00,66.9,66.3,28.62,SE,135,5.8,5.8,98,0.05,CLR,SKC,0.33,WeatherDisplay:10.37,2013-08-08 00:23:00,
2013-08-07 20:28:00,66.9,66.3,28.62,SE,135,5.8,5.8,98,0.04,CLR,SKC,0.33,WeatherDisplay:10.37,2013-08-08 00:28:00,
2013-08-07 20:33:00,67.1,66.5,28.62,East,90,5.8,5.8,98,0.02,CLR,SKC,0.33,WeatherDisplay:10.37,2013-08-08 00:33:00,
2013-08-07 20:38:00,67.1,66.5,28.62,East,90,3.5,3.5,98,0.02,CLR,SKC,0.33,WeatherDisplay:10.37,2013-08-08 00:38:00,
2013-08-07 20:43:00,67.1,66.5,28.62,SE,135,8.1,8.1,98,0.01,CLR,SKC,0.33,WeatherDisplay:10.37,2013-08-08 00:43:00,
2013-08-07 20:48:00,67.1,66.5,28.62,SE,135,4.6,4.6,98,0.00,CLR,SKC,0.33,WeatherDisplay:10.37,2013-08-08 00:48:00,
2013-08-07 20:53:00,67.1,66.5,28.63,East,90,3.5,3.5,98,0.00,CLR,SKC,0.33,WeatherDisplay:10.37,2013-08-08 00:53:00,
2013-08-07 20:58:00,67.1,66.5,28.64,South,180,3.5,3.5,98,0.00,CLR,SKC,0.33,WeatherDisplay:10.37,2013-08-08 00:58:00,
2013-08-07 21:03:00,67.1,66.5,28.64,SE,135,3.5,3.5,98,0.00,CLR,SKC,0.33,WeatherDisplay:10.37,2013-08-08 01:03:00,
2013-08-07 21:08:00,67.1,66.5,28.64,SE,135,3.5,3.5,98,0.00,CLR,SKC,0.33,WeatherDisplay:10.37,2013-08-08 01:08:00,
2013-08-07 21:13:00,67.1,66.5,28.64,SSE,158,2.3,2.3,98,0.00,CLR,SKC,0.33,WeatherDisplay:10.37,2013-08-08 01:13:00,
2013-08-07 21:18:00,67.1,66.5,28.65,ESE,112,3.5,3.5,98,0.00,CLR,SKC,0.33,WeatherDisplay:10.37,2013-08-08 01:18:00,
2013-08-07 21:23:00,67.3,66.7,28.65,SE,135,4.6,4.6,98,0.00,CLR,SKC,0.33,WeatherDisplay:10.37,2013-08-08 01:23:00,
2013-08-07 21:28:00,67.3,66.7,28.65,SSE,158,5.8,5.8,98,0.00,CLR,SKC,0.33,WeatherDisplay:10.37,2013-08-08 01:28:00,
2013-08-07 21:33:00,67.3,66.7,28.64,SE,135,4.6,4.6,98,0.00,CLR,SKC,0.33,WeatherDisplay:10.37,2013-08-08 01:33:00,
2013-08-07 21:38:00,67.3,66.7,28.64,SE,135,4.6,4.6,98,0.00,CLR,SKC,0.33,WeatherDisplay:10.37,2013-08-08 01:38:00,
2013-08-07 21:43:00,67.1,66.5,28.64,SE,135,4.6,4.6,98,0.00,CLR,SKC,0.33,WeatherDisplay:10.37,2013-08-08 01:43:00,
2013-08-07 21:48:00,67.1,66.5,28.64,SE,135,3.5,3.5,98,0.00,CLR,SKC,0.33,WeatherDisplay:10.37,2013-08-08 01:48:00,
2013-08-07 21:53:00,67.1,66.5,28.64,SE,135,3.5,3.5,98,0.00,CLR,SKC,0.33,WeatherDisplay:10.37,2013-08-08 01:53:00,
2013-08-07 21:58:00,67.1,66.5,28.64,SE,135,3.5,3.5,98,0.00,CLR,SKC,0.33,WeatherDisplay:10.37,2013-08-08 01:58:00,
2013-08-07 22:03:00,67.1,66.5,28.64,SE,135,3.5,3.5,98,0.00,CLR,SKC,0.33,WeatherDisplay:10.37,2013-08-08 02:03:00,
2013-08-07 22:08:00,67.1,66.5,28.64,SE,135,3.5,3.5,98,0.00,CLR,SKC,0.33,WeatherDisplay:10.37,2013-08-08 02:08:00,
2013-08-07 22:13:00,66.9,66.3,28.64,SE,135,3.5,3.5,98,0.00,CLR,SKC,0.33,WeatherDisplay:10.37,2013-08-08 02:13:00,
2013-08-07 22:18:00,66.9,66.3,28.64,SE,135,3.5,3.5,98,0.00,CLR,SKC,0.33,WeatherDisplay:10.37,2013-08-08 02:18:00,
2013-08-07 22:23:00,66.7,66.2,28.64,SE,135,3.5,3.5,98,0.00,CLR,SKC,0.33,WeatherDisplay:10.37,2013-08-08 02:23:00,
2013-08-07 22:28:00,66.7,66.2,28.64,SE,135,3.5,3.5,98,0.00,CLR,SKC,0.33,WeatherDisplay:10.37,2013-08-08 02:28:00,
2013-08-07 22:33:00,66.6,66.0,28.64,SE,135,3.5,3.5,98,0.00,CLR,SKC,0.33,WeatherDisplay:10.37,2013-08-08 02:33:00,
2013-08-07 22:38:00,66.6,66.0,28.64,South,180,5.8,0.0,98,0.00,CLR,SKC,0.33,WeatherDisplay:10.37,2013-08-08 02:38:00,
2013-08-07 22:43:00,66.4,65.8,28.64,SE,135,1.2,0.0,98,0.00,CLR,SKC,0.33,WeatherDisplay:10.37,2013-08-08 02:43:00,
2013-08-07 22:49:00,66.2,65.6,28.64,South,180,1.2,0.0,98,0.00,CLR,SKC,0.33,WeatherDisplay:10.37,2013-08-08 02:49:00,
2013-08-07 22:54:00,66.2,65.6,28.64,South,180,3.5,0.0,98,0.00,CLR,SKC,0.33,WeatherDisplay:10.37,2013-08-08 02:54:00,
2013-08-07 22:59:00,66.2,65.6,28.64,SE,135,1.2,1.2,98,0.00,CLR,SKC,0.33,WeatherDisplay:10.37,2013-08-08 02:59:00,
2013-08-07 23:04:00,66.2,65.6,28.64,SE,135,2.3,2.3,98,0.00,CLR,SKC,0.33,WeatherDisplay:10.37,2013-08-08 03:04:00,
2013-08-07 23:09:00,66.2,65.6,28.63,SE,135,2.3,0.0,98,0.02,RA,SKC,0.35,WeatherDisplay:10.37,2013-08-08 03:09:00,
2013-08-07 23:14:00,66.2,65.6,28.63,SE,135,0.0,0.0,98,0.02,RA,SKC,0.35,WeatherDisplay:10.37,2013-08-08 03:14:00,
2013-08-07 23:19:00,66.2,65.6,28.63,SE,135,0.0,0.0,98,0.02,,SKC,0.35,WeatherDisplay:10.37,2013-08-08 03:19:00,
2013-08-07 23:24:00,66.2,65.6,28.63,East,90,0.0,0.0,98,0.04,RA,SKC,0.37,WeatherDisplay:10.37,2013-08-08 03:24:00,
2013-08-07 23:29:00,66.2,65.6,28.63,East,90,0.0,0.0,98,0.04,RA,SKC,0.37,WeatherDisplay:10.37,2013-08-08 03:29:00,
2013-08-07 23:34:00,66.2,65.6,28.63,South,180,3.5,0.0,98,0.04,,SKC,0.37,WeatherDisplay:10.37,2013-08-08 03:34:00,
2013-08-07 23:39:00,66.2,65.6,28.63,SE,135,0.0,0.0,98,0.04,CLR,SKC,0.37,WeatherDisplay:10.37,2013-08-08 03:39:00,
2013-08-07 23:44:00,66.0,65.4,28.63,SE,135,0.0,0.0,98,0.04,CLR,SKC,0.37,WeatherDisplay:10.37,2013-08-08 03:44:00,
2013-08-07 23:49:00,66.0,65.4,28.63,SE,135,0.0,0.0,98,0.04,CLR,SKC,0.37,WeatherDisplay:10.37,2013-08-08 03:49:00,
2013-08-07 23:54:00,66.0,65.4,28.63,SE,135,0.0,0.0,98,0.04,CLR,SKC,0.37,WeatherDisplay:10.37,2013-08-08 03:54:00,
2013-08-07 23:59:00,65.8,65.3,28.63,SE,135,0.0,0.0,98,0.04,CLR,SKC,0.37,WeatherDisplay:10.37,2013-08-08 03:59:00,